PRIVATE WETTERSTATION BILLIGHEIM-ALLFELD                       ZURCK
Wetterdaten: Freitag, 29.07.2016
Datum Zeit Temp. A. Temp. A. min Temp. A. max Feuchte A. Luftdruck Regen Wind Richtung Richtung Sonnenschein ET Solar Taupunkt Windchill Windben Empfang
29.07.2016 00:00 18,9 C 18,9 C 18,9 C 84 % 1014,1 hPa 0,0 l/m 4,8 km/h (1 Bft) W-SW 247 0 min 0,025 mm 0 W/m 16,1 C 18,9 C 16,1 km/h (3 Bft) 98 %
29.07.2016 00:10 18,9 C 18,9 C 18,9 C 84 % 1014,1 hPa 0,0 l/m 4,8 km/h (1 Bft) W-SW 247 0 min 0,000 mm 0 W/m 16,1 C 18,9 C 16,1 km/h (3 Bft) 97 %
29.07.2016 00:20 18,9 C 18,9 C 18,9 C 85 % 1014,3 hPa 0,0 l/m 1,6 km/h (1 Bft) W-SW 247 0 min 0,000 mm 0 W/m 16,3 C 18,9 C 8,0 km/h (2 Bft) 97 %
29.07.2016 00:30 18,8 C 18,8 C 18,9 C 85 % 1014,2 hPa 0,0 l/m 1,6 km/h (1 Bft) SW 225 0 min 0,000 mm 0 W/m 16,2 C 18,8 C 6,4 km/h (2 Bft) 98 %
29.07.2016 00:40 18,7 C 18,7 C 18,8 C 85 % 1014,3 hPa 0,0 l/m 1,6 km/h (1 Bft) SW 225 0 min 0,000 mm 0 W/m 16,1 C 18,7 C 4,8 km/h (1 Bft) 97 %
29.07.2016 00:50 18,4 C 18,4 C 18,6 C 86 % 1014,3 hPa 0,0 l/m 0,0 km/h (0 Bft) SW 225 0 min 0,000 mm 0 W/m 16,0 C 18,4 C 6,4 km/h (2 Bft) 97 %
29.07.2016 01:00 18,3 C 18,3 C 18,4 C 87 % 1014,2 hPa 0,0 l/m 0,0 km/h (0 Bft) SW 225 0 min 0,025 mm 0 W/m 16,1 C 18,3 C 9,7 km/h (2 Bft) 98 %
29.07.2016 01:10 18,2 C 18,2 C 18,3 C 87 % 1014,1 hPa 0,0 l/m 1,6 km/h (1 Bft) SW 225 0 min 0,000 mm 0 W/m 16,0 C 18,2 C 8,0 km/h (2 Bft) 98 %
29.07.2016 01:20 18,2 C 18,2 C 18,2 C 87 % 1014,3 hPa 0,0 l/m 0,0 km/h (0 Bft) SW 225 0 min 0,000 mm 0 W/m 16,0 C 18,2 C 8,0 km/h (2 Bft) 98 %
29.07.2016 01:30 18,2 C 18,2 C 18,2 C 87 % 1014,3 hPa 0,0 l/m 1,6 km/h (1 Bft) SW 225 0 min 0,000 mm 0 W/m 16,0 C 18,2 C 11,3 km/h (2 Bft) 97 %
29.07.2016 01:40 18,2 C 18,1 C 18,2 C 87 % 1014,4 hPa 0,0 l/m 4,8 km/h (1 Bft) SW 225 0 min 0,000 mm 0 W/m 16,0 C 18,2 C 17,7 km/h (3 Bft) 97 %
29.07.2016 01:50 18,2 C 18,2 C 18,2 C 87 % 1014,3 hPa 0,0 l/m 1,6 km/h (1 Bft) W-SW 247 0 min 0,000 mm 0 W/m 16,0 C 18,2 C 8,0 km/h (2 Bft) 98 %
29.07.2016 02:00 18,1 C 18,1 C 18,2 C 87 % 1014,4 hPa 0,0 l/m 0,0 km/h (0 Bft) W-SW 247 0 min 0,025 mm 0 W/m 15,9 C 18,1 C 1,6 km/h (1 Bft) 97 %
29.07.2016 02:10 18,1 C 18,1 C 18,2 C 87 % 1014,5 hPa 0,0 l/m 1,6 km/h (1 Bft) S-SW 202 0 min 0,000 mm 0 W/m 15,9 C 18,1 C 9,7 km/h (2 Bft) 97 %
29.07.2016 02:20 17,9 C 17,9 C 18,1 C 88 % 1014,4 hPa 0,0 l/m 8,0 km/h (2 Bft) S-SW 202 0 min 0,000 mm 0 W/m 15,9 C 17,1 C 17,7 km/h (3 Bft) 98 %
29.07.2016 02:30 17,9 C 17,9 C 18,0 C 88 % 1014,3 hPa 0,0 l/m 1,6 km/h (1 Bft) SW 225 0 min 0,000 mm 0 W/m 15,9 C 17,9 C 8,0 km/h (2 Bft) 98 %
29.07.2016 02:40 17,8 C 17,8 C 17,9 C 88 % 1014,3 hPa 0,0 l/m 3,2 km/h (1 Bft) SW 225 0 min 0,000 mm 0 W/m 15,8 C 17,8 C 11,3 km/h (2 Bft) 97 %
29.07.2016 02:50 17,8 C 17,8 C 17,8 C 88 % 1014,4 hPa 0,0 l/m 3,2 km/h (1 Bft) W-SW 247 0 min 0,000 mm 0 W/m 15,8 C 17,8 C 11,3 km/h (2 Bft) 98 %
29.07.2016 03:00 17,8 C 17,8 C 17,8 C 88 % 1014,2 hPa 0,0 l/m 4,8 km/h (1 Bft) SW 225 0 min 0,025 mm 0 W/m 15,8 C 17,8 C 14,5 km/h (3 Bft) 99 %
29.07.2016 03:10 17,7 C 17,7 C 17,8 C 88 % 1014,3 hPa 0,0 l/m 6,4 km/h (2 Bft) S-SW 202 0 min 0,000 mm 0 W/m 15,7 C 17,7 C 16,1 km/h (3 Bft) 99 %
29.07.2016 03:20 17,7 C 17,7 C 17,7 C 88 % 1014,2 hPa 0,0 l/m 4,8 km/h (1 Bft) SW 225 0 min 0,000 mm 0 W/m 15,7 C 17,7 C 11,3 km/h (2 Bft) 100 %
29.07.2016 03:30 17,7 C 17,7 C 17,7 C 88 % 1014,1 hPa 0,0 l/m 0,0 km/h (0 Bft) W-SW 247 0 min 0,000 mm 0 W/m 15,7 C 17,7 C 1,6 km/h (1 Bft) 100 %
29.07.2016 03:40 17,7 C 17,7 C 17,7 C 88 % 1014,2 hPa 0,0 l/m 0,0 km/h (0 Bft) SW 225 0 min 0,000 mm 0 W/m 15,7 C 17,7 C 8,0 km/h (2 Bft) 100 %
29.07.2016 03:50 17,7 C 17,7 C 17,7 C 88 % 1014,3 hPa 0,0 l/m 1,6 km/h (1 Bft) W-SW 247 0 min 0,000 mm 0 W/m 15,7 C 17,7 C 8,0 km/h (2 Bft) 99 %
29.07.2016 04:00 17,7 C 17,7 C 17,7 C 88 % 1014,3 hPa 0,0 l/m 1,6 km/h (1 Bft) SW 225 0 min 0,025 mm 0 W/m 15,7 C 17,7 C 11,3 km/h (2 Bft) 100 %
29.07.2016 04:10 17,7 C 17,7 C 17,7 C 89 % 1014,2 hPa 0,0 l/m 1,6 km/h (1 Bft) W-SW 247 0 min 0,000 mm 0 W/m 15,9 C 17,7 C 6,4 km/h (2 Bft) 100 %
29.07.2016 04:20 17,7 C 17,7 C 17,7 C 89 % 1014,1 hPa 0,0 l/m 3,2 km/h (1 Bft) SW 225 0 min 0,000 mm 0 W/m 15,9 C 17,7 C 14,5 km/h (3 Bft) 99 %
29.07.2016 04:30 17,7 C 17,7 C 17,7 C 89 % 1014,2 hPa 0,0 l/m 3,2 km/h (1 Bft) SW 225 0 min 0,000 mm 0 W/m 15,9 C 17,7 C 11,3 km/h (2 Bft) 100 %
29.07.2016 04:40 17,6 C 17,6 C 17,7 C 89 % 1014,0 hPa 0,0 l/m 4,8 km/h (1 Bft) SW 225 0 min 0,000 mm 0 W/m 15,8 C 17,6 C 11,3 km/h (2 Bft) 100 %
29.07.2016 04:50 17,6 C 17,6 C 17,7 C 89 % 1014,1 hPa 0,0 l/m 4,8 km/h (1 Bft) S-SW 202 0 min 0,000 mm 0 W/m 15,8 C 17,6 C 12,9 km/h (3 Bft) 99 %
29.07.2016 05:00 17,6 C 17,6 C 17,6 C 89 % 1014,1 hPa 0,0 l/m 3,2 km/h (1 Bft) SW 225 0 min 0,025 mm 0 W/m 15,8 C 17,6 C 11,3 km/h (2 Bft) 99 %
29.07.2016 05:10 17,6 C 17,6 C 17,6 C 89 % 1014,1 hPa 0,0 l/m 3,2 km/h (1 Bft) SW 225 0 min 0,000 mm 0 W/m 15,8 C 17,6 C 12,9 km/h (3 Bft) 99 %
29.07.2016 05:20 17,5 C 17,5 C 17,6 C 89 % 1014,0 hPa 0,0 l/m 6,4 km/h (2 Bft) SW 225 0 min 0,000 mm 0 W/m 15,7 C 17,5 C 22,5 km/h (4 Bft) 100 %
29.07.2016 05:30 17,5 C 17,5 C 17,5 C 89 % 1014,1 hPa 0,0 l/m 4,8 km/h (1 Bft) S-SW 202 0 min 0,000 mm 0 W/m 15,7 C 17,5 C 14,5 km/h (3 Bft) 90 %
29.07.2016 05:40 17,4 C 17,4 C 17,5 C 89 % 1014,0 hPa 0,0 l/m 3,2 km/h (1 Bft) SW 225 0 min 0,000 mm 0 W/m 15,6 C 17,4 C 17,7 km/h (3 Bft) 100 %
29.07.2016 05:50 17,4 C 17,4 C 17,4 C 89 % 1014,1 hPa 0,0 l/m 4,8 km/h (1 Bft) S-SW 202 0 min 0,000 mm 0 W/m 15,6 C 17,4 C 12,9 km/h (3 Bft) 100 %
29.07.2016 06:00 17,4 C 17,4 C 17,4 C 89 % 1014,2 hPa 0,0 l/m 1,6 km/h (1 Bft) SW 225 0 min 0,000 mm 0 W/m 15,6 C 17,4 C 9,7 km/h (2 Bft) 99 %
29.07.2016 06:10 17,4 C 17,4 C 17,4 C 89 % 1014,2 hPa 0,0 l/m 1,6 km/h (1 Bft) SW 225 0 min 0,000 mm 0 W/m 15,6 C 17,4 C 8,0 km/h (2 Bft) 100 %
29.07.2016 06:20 17,4 C 17,4 C 17,4 C 89 % 1014,2 hPa 0,0 l/m 3,2 km/h (1 Bft) SW 225 0 min 0,000 mm 7 W/m 15,6 C 17,4 C 11,3 km/h (2 Bft) 99 %
29.07.2016 06:30 17,4 C 17,4 C 17,4 C 89 % 1014,1 hPa 0,0 l/m 1,6 km/h (1 Bft) SW 225 0 min 0,000 mm 14 W/m 15,6 C 17,4 C 9,7 km/h (2 Bft) 100 %
29.07.2016 06:40 17,4 C 17,4 C 17,4 C 89 % 1014,1 hPa 0,0 l/m 1,6 km/h (1 Bft) SW 225 0 min 0,000 mm 21 W/m 15,6 C 17,4 C 9,7 km/h (2 Bft) 100 %
29.07.2016 06:50 17,4 C 17,4 C 17,4 C 89 % 1014,1 hPa 0,0 l/m 4,8 km/h (1 Bft) S-SW 202 0 min 0,000 mm 21 W/m 15,6 C 17,4 C 16,1 km/h (3 Bft) 100 %
29.07.2016 07:00 17,4 C 17,4 C 17,4 C 89 % 1014,1 hPa 0,0 l/m 3,2 km/h (1 Bft) S-SW 202 0 min 0,025 mm 44 W/m 15,6 C 17,4 C 9,7 km/h (2 Bft) 100 %
29.07.2016 07:10 17,4 C 17,4 C 17,4 C 89 % 1014,1 hPa 0,0 l/m 1,6 km/h (1 Bft) SW 225 0 min 0,000 mm 42 W/m 15,6 C 17,4 C 11,3 km/h (2 Bft) 98 %
29.07.2016 07:20 17,4 C 17,4 C 17,4 C 89 % 1014,2 hPa 0,0 l/m 1,6 km/h (1 Bft) SW 225 0 min 0,000 mm 49 W/m 15,6 C 17,4 C 8,0 km/h (2 Bft) 100 %
29.07.2016 07:30 17,6 C 17,4 C 17,6 C 89 % 1014,2 hPa 0,0 l/m 1,6 km/h (1 Bft) S-SW 202 0 min 0,000 mm 105 W/m 15,8 C 17,6 C 9,7 km/h (2 Bft) 100 %
29.07.2016 07:40 17,7 C 17,6 C 17,7 C 89 % 1014,3 hPa 0,0 l/m 3,2 km/h (1 Bft) S-SW 202 0 min 0,000 mm 118 W/m 15,9 C 17,7 C 11,3 km/h (2 Bft) 100 %
29.07.2016 07:50 17,7 C 17,7 C 17,7 C 89 % 1014,3 hPa 0,0 l/m 3,2 km/h (1 Bft) SW 225 0 min 0,000 mm 127 W/m 15,9 C 17,7 C 14,5 km/h (3 Bft) 99 %
29.07.2016 08:00 17,7 C 17,7 C 17,7 C 89 % 1014,2 hPa 0,0 l/m 3,2 km/h (1 Bft) W-SW 247 0 min 0,051 mm 84 W/m 15,9 C 17,7 C 16,1 km/h (3 Bft) 100 %
29.07.2016 08:10 17,7 C 17,7 C 17,7 C 89 % 1014,3 hPa 0,0 l/m 0,0 km/h (0 Bft) S-SW 202 0 min 0,000 mm 81 W/m 15,9 C 17,7 C 6,4 km/h (2 Bft) 98 %
29.07.2016 08:20 17,9 C 17,7 C 17,9 C 89 % 1014,4 hPa 0,0 l/m 0,0 km/h (0 Bft) S 180 0 min 0,000 mm 139 W/m 16,1 C 17,9 C 9,7 km/h (2 Bft) 100 %
29.07.2016 08:30 18,3 C 17,9 C 18,3 C 88 % 1014,4 hPa 0,0 l/m 4,8 km/h (1 Bft) S-SW 202 10 min 0,000 mm 218 W/m 16,3 C 18,3 C 17,7 km/h (3 Bft) 100 %
29.07.2016 08:40 18,6 C 18,3 C 18,6 C 87 % 1014,3 hPa 0,0 l/m 6,4 km/h (2 Bft) S-SW 202 10 min 0,000 mm 185 W/m 16,4 C 18,6 C 16,1 km/h (3 Bft) 100 %
29.07.2016 08:50 18,9 C 18,6 C 18,9 C 88 % 1014,2 hPa 0,0 l/m 1,6 km/h (1 Bft) S-SW 202 10 min 0,000 mm 417 W/m 16,9 C 18,9 C 11,3 km/h (2 Bft) 100 %
29.07.2016 09:00 19,9 C 18,9 C 19,9 C 86 % 1014,3 hPa 0,0 l/m 1,6 km/h (1 Bft) SW 225 10 min 0,102 mm 468 W/m 17,5 C 19,9 C 11,3 km/h (2 Bft) 99 %
29.07.2016 09:10 20,4 C 19,9 C 20,4 C 81 % 1014,3 hPa 0,0 l/m 8,0 km/h (2 Bft) S-SW 202 10 min 0,000 mm 468 W/m 17,0 C 19,8 C 24,1 km/h (4 Bft) 100 %
29.07.2016 09:20 20,7 C 20,4 C 20,7 C 81 % 1014,4 hPa 0,0 l/m 8,0 km/h (2 Bft) S-SW 202 10 min 0,000 mm 508 W/m 17,3 C 20,1 C 19,3 km/h (3 Bft) 100 %
29.07.2016 09:30 21,3 C 20,7 C 21,3 C 80 % 1014,3 hPa 0,0 l/m 8,0 km/h (2 Bft) SW 225 10 min 0,000 mm 598 W/m 17,7 C 20,7 C 17,7 km/h (3 Bft) 100 %
29.07.2016 09:40 21,4 C 21,3 C 21,4 C 76 % 1014,3 hPa 0,0 l/m 8,0 km/h (2 Bft) S-SW 202 10 min 0,000 mm 589 W/m 17,0 C 20,8 C 19,3 km/h (3 Bft) 100 %
29.07.2016 09:50 21,6 C 21,4 C 21,7 C 76 % 1014,3 hPa 0,0 l/m 8,0 km/h (2 Bft) S-SW 202 10 min 0,000 mm 621 W/m 17,2 C 21,0 C 22,5 km/h (4 Bft) 100 %
29.07.2016 10:00 21,7 C 21,6 C 21,7 C 74 % 1014,2 hPa 0,0 l/m 9,7 km/h (2 Bft) SW 225 10 min 0,279 mm 700 W/m 16,9 C 20,6 C 20,9 km/h (4 Bft) 99 %
29.07.2016 10:10 21,9 C 21,7 C 21,9 C 71 % 1014,2 hPa 0,0 l/m 9,7 km/h (2 Bft) SW 225 10 min 0,000 mm 752 W/m 16,4 C 20,8 C 24,1 km/h (4 Bft) 99 %
29.07.2016 10:20 21,6 C 21,6 C 21,9 C 73 % 1014,3 hPa 0,0 l/m 6,4 km/h (2 Bft) SW 225 10 min 0,000 mm 327 W/m 16,5 C 21,6 C 17,7 km/h (3 Bft) 100 %
29.07.2016 10:30 21,4 C 21,4 C 21,6 C 73 % 1014,3 hPa 0,0 l/m 4,8 km/h (1 Bft) SW 225 10 min 0,000 mm 302 W/m 16,4 C 21,4 C 20,9 km/h (4 Bft) 100 %
29.07.2016 10:40 21,5 C 21,3 C 21,5 C 75 % 1014,2 hPa 0,0 l/m 9,7 km/h (2 Bft) SW 225 10 min 0,000 mm 798 W/m 16,9 C 20,4 C 25,7 km/h (4 Bft) 99 %
29.07.2016 10:50 22,1 C 21,5 C 22,2 C 71 % 1014,2 hPa 0,0 l/m 9,7 km/h (2 Bft) S-SW 202 10 min 0,000 mm 793 W/m 16,6 C 21,0 C 24,1 km/h (4 Bft) 100 %
29.07.2016 11:00 21,8 C 21,8 C 22,1 C 72 % 1014,3 hPa 0,0 l/m 9,7 km/h (2 Bft) SW 225 10 min 0,279 mm 476 W/m 16,5 C 20,7 C 25,7 km/h (4 Bft) 99 %
29.07.2016 11:10 21,9 C 21,7 C 21,9 C 73 % 1014,3 hPa 0,0 l/m 6,4 km/h (2 Bft) W 270 10 min 0,000 mm 427 W/m 16,8 C 21,9 C 17,7 km/h (3 Bft) 99 %
29.07.2016 11:20 22,4 C 21,9 C 22,4 C 71 % 1014,2 hPa 0,0 l/m 6,4 km/h (2 Bft) W 270 10 min 0,000 mm 772 W/m 16,9 C 22,4 C 24,1 km/h (4 Bft) 100 %
29.07.2016 11:30 22,7 C 22,4 C 22,7 C 71 % 1014,2 hPa 0,0 l/m 9,7 km/h (2 Bft) S-SW 202 10 min 0,000 mm 986 W/m 17,2 C 21,7 C 25,7 km/h (4 Bft) 100 %
29.07.2016 11:40 22,6 C 22,6 C 22,8 C 71 % 1014,1 hPa 0,0 l/m 8,0 km/h (2 Bft) S-SW 202 10 min 0,000 mm 545 W/m 17,1 C 22,1 C 19,3 km/h (3 Bft) 100 %
29.07.2016 11:50 22,6 C 22,6 C 22,7 C 70 % 1014,1 hPa 0,0 l/m 9,7 km/h (2 Bft) SW 225 10 min 0,000 mm 406 W/m 16,8 C 21,6 C 17,7 km/h (3 Bft) 100 %
29.07.2016 12:00 22,3 C 22,3 C 22,6 C 71 % 1014,0 hPa 0,0 l/m 8,0 km/h (2 Bft) S-SW 202 10 min 0,305 mm 353 W/m 16,8 C 21,8 C 16,1 km/h (3 Bft) 100 %
29.07.2016 12:10 21,9 C 21,8 C 22,3 C 72 % 1014,1 hPa 0,0 l/m 4,8 km/h (1 Bft) W-SW 247 0 min 0,000 mm 130 W/m 16,6 C 21,9 C 14,5 km/h (3 Bft) 100 %
29.07.2016 12:20 21,7 C 21,7 C 21,8 C 73 % 1013,9 hPa 0,0 l/m 4,8 km/h (1 Bft) W 270 10 min 0,000 mm 271 W/m 16,6 C 21,7 C 12,9 km/h (3 Bft) 100 %
29.07.2016 12:30 22,1 C 21,7 C 22,1 C 74 % 1013,8 hPa 0,0 l/m 3,2 km/h (1 Bft) W-NW 292 10 min 0,000 mm 466 W/m 17,2 C 22,1 C 9,7 km/h (2 Bft) 99 %
29.07.2016 12:40 23,1 C 22,1 C 23,1 C 72 % 1013,7 hPa 0,0 l/m 4,8 km/h (1 Bft) W-NW 292 10 min 0,000 mm 309 W/m 17,8 C 23,1 C 17,7 km/h (3 Bft) 100 %
29.07.2016 12:50 23,3 C 23,1 C 23,3 C 67 % 1013,7 hPa 0,0 l/m 6,4 km/h (2 Bft) SW 225 10 min 0,000 mm 422 W/m 16,8 C 23,3 C 17,7 km/h (3 Bft) 100 %
29.07.2016 13:00 23,3 C 23,3 C 23,3 C 69 % 1013,5 hPa 0,0 l/m 6,4 km/h (2 Bft) S-SW 202 10 min 0,229 mm 445 W/m 17,3 C 23,3 C 22,5 km/h (4 Bft) 100 %
29.07.2016 13:10 23,1 C 23,1 C 23,3 C 68 % 1013,7 hPa 0,0 l/m 11,3 km/h (2 Bft) S-SW 202 10 min 0,000 mm 485 W/m 16,9 C 21,8 C 22,5 km/h (4 Bft) 100 %
29.07.2016 13:20 23,5 C 23,1 C 23,5 C 68 % 1013,6 hPa 0,0 l/m 11,3 km/h (2 Bft) SW 225 10 min 0,000 mm 1273 W/m 17,2 C 22,2 C 27,4 km/h (4 Bft) 100 %
29.07.2016 13:30 23,3 C 23,3 C 23,7 C 68 % 1013,5 hPa 0,0 l/m 11,3 km/h (2 Bft) S-SW 202 10 min 0,000 mm 360 W/m 17,1 C 22,0 C 25,7 km/h (4 Bft) 100 %
29.07.2016 13:40 23,1 C 23,1 C 23,3 C 69 % 1013,4 hPa 0,0 l/m 6,4 km/h (2 Bft) W-SW 247 10 min 0,000 mm 369 W/m 17,1 C 23,1 C 19,3 km/h (3 Bft) 100 %
29.07.2016 13:50 23,3 C 23,1 C 23,3 C 65 % 1013,5 hPa 0,0 l/m 9,7 km/h (2 Bft) S-SW 202 10 min 0,000 mm 905 W/m 16,3 C 22,4 C 27,4 km/h (4 Bft) 100 %
29.07.2016 14:00 23,5 C 23,3 C 23,5 C 66 % 1013,4 hPa 0,0 l/m 11,3 km/h (2 Bft) W-SW 247 10 min 0,330 mm 545 W/m 16,8 C 22,2 C 29,0 km/h (5 Bft) 100 %
29.07.2016 14:10 23,6 C 23,5 C 23,6 C 66 % 1013,4 hPa 0,0 l/m 9,7 km/h (2 Bft) W-SW 247 10 min 0,000 mm 373 W/m 16,9 C 22,7 C 24,1 km/h (4 Bft) 100 %
29.07.2016 14:20 23,4 C 23,3 C 23,6 C 69 % 1013,3 hPa 0,0 l/m 4,8 km/h (1 Bft) SW 225 10 min 0,000 mm 580 W/m 17,4 C 23,4 C 19,3 km/h (3 Bft) 99 %
29.07.2016 14:30 23,8 C 23,4 C 23,8 C 66 % 1013,2 hPa 0,0 l/m 9,7 km/h (2 Bft) W 270 10 min 0,000 mm 1063 W/m 17,1 C 22,9 C 24,1 km/h (4 Bft) 100 %
29.07.2016 14:40 24,6 C 23,8 C 24,6 C 63 % 1013,1 hPa 0,0 l/m 3,2 km/h (1 Bft) SW 225 10 min 0,000 mm 1013 W/m 17,1 C 24,6 C 19,3 km/h (3 Bft) 100 %
29.07.2016 14:50 24,4 C 24,3 C 24,6 C 66 % 1013,2 hPa 0,0 l/m 6,4 km/h (2 Bft) W-SW 247 10 min 0,000 mm 951 W/m 17,6 C 24,4 C 19,3 km/h (3 Bft) 100 %
29.07.2016 15:00 24,9 C 24,4 C 24,9 C 65 % 1012,8 hPa 0,0 l/m 8,0 km/h (2 Bft) SW 225 10 min 0,356 mm 1002 W/m 17,9 C 24,5 C 20,9 km/h (4 Bft) 100 %
29.07.2016 15:10 25,1 C 24,9 C 25,2 C 62 % 1012,9 hPa 0,0 l/m 11,3 km/h (2 Bft) SW 225 10 min 0,000 mm 946 W/m 17,3 C 24,0 C 27,4 km/h (4 Bft) 100 %
29.07.2016 15:20 24,9 C 24,9 C 25,1 C 64 % 1012,9 hPa 0,0 l/m 9,7 km/h (2 Bft) SW 225 10 min 0,000 mm 248 W/m 17,6 C 24,1 C 25,7 km/h (4 Bft) 99 %
29.07.2016 15:30 25,3 C 24,9 C 25,3 C 64 % 1012,7 hPa 0,0 l/m 8,0 km/h (2 Bft) SW 225 10 min 0,000 mm 575 W/m 18,0 C 24,9 C 25,7 km/h (4 Bft) 100 %
29.07.2016 15:40 25,6 C 25,3 C 25,6 C 60 % 1012,7 hPa 0,0 l/m 9,7 km/h (2 Bft) W-SW 247 10 min 0,000 mm 315 W/m 17,2 C 24,9 C 22,5 km/h (4 Bft) 100 %
29.07.2016 15:50 25,2 C 25,2 C 25,6 C 62 % 1012,7 hPa 0,0 l/m 9,7 km/h (2 Bft) W-SW 247 10 min 0,000 mm 274 W/m 17,4 C 24,4 C 22,5 km/h (4 Bft) 100 %
29.07.2016 16:00 25,3 C 25,2 C 25,3 C 61 % 1012,6 hPa 0,0 l/m 9,7 km/h (2 Bft) W-SW 247 10 min 0,305 mm 399 W/m 17,2 C 24,6 C 24,1 km/h (4 Bft) 99 %
29.07.2016 16:10 25,6 C 25,3 C 25,6 C 60 % 1012,5 hPa 0,0 l/m 12,9 km/h (3 Bft) SW 225 10 min 0,000 mm 670 W/m 17,2 C 24,3 C 25,7 km/h (4 Bft) 100 %
29.07.2016 16:20 25,7 C 25,6 C 25,7 C 63 % 1012,3 hPa 0,0 l/m 9,7 km/h (2 Bft) W-SW 247 10 min 0,000 mm 742 W/m 18,1 C 25,0 C 24,1 km/h (4 Bft) 99 %
29.07.2016 16:30 25,9 C 25,7 C 25,9 C 59 % 1012,3 hPa 0,0 l/m 8,0 km/h (2 Bft) W-SW 247 10 min 0,000 mm 696 W/m 17,3 C 25,5 C 25,7 km/h (4 Bft) 99 %
29.07.2016 16:40 25,8 C 25,8 C 25,9 C 62 % 1012,2 hPa 0,0 l/m 9,7 km/h (2 Bft) W-SW 247 10 min 0,000 mm 717 W/m 18,0 C 25,1 C 20,9 km/h (4 Bft) 98 %
29.07.2016 16:50 25,7 C 25,7 C 25,8 C 60 % 1012,1 hPa 0,0 l/m 14,5 km/h (3 Bft) S-SW 202 10 min 0,000 mm 592 W/m 17,3 C 24,2 C 33,8 km/h (5 Bft) 97 %
29.07.2016 17:00 25,8 C 25,7 C 25,8 C 59 % 1012,2 hPa 0,0 l/m 11,3 km/h (2 Bft) W-SW 247 10 min 0,330 mm 304 W/m 17,2 C 24,8 C 27,4 km/h (4 Bft) 98 %
29.07.2016 17:10 25,4 C 25,4 C 25,8 C 60 % 1012,1 hPa 0,0 l/m 9,6 km/h (2 Bft) SW 228 0 min 0,000 mm 151 W/m 17,1 C 24,7 C 19,3 km/h (3 Bft) 99 %
29.07.2016 17:20 24,8 C 24,8 C 25,4 C 63 % 1012,1 hPa 0,0 l/m 8,8 km/h (2 Bft) SW 236 10 min 0,000 mm 176 W/m 17,3 C 24,2 C 25,7 km/h (4 Bft) 100 %
29.07.2016 17:30 24,7 C 24,7 C 24,8 C 64 % 1012,2 hPa 0,0 l/m 7,3 km/h (2 Bft) S-SW 211 0 min 0,000 mm 135 W/m 17,4 C 24,5 C 27,4 km/h (4 Bft) 100 %
29.07.2016 17:40 24,8 C 24,7 C 24,9 C 63 % 1012,1 hPa 0,0 l/m 14,4 km/h (3 Bft) SW 227 0 min 0,000 mm 67 W/m 17,3 C 23,2 C 35,4 km/h (5 Bft) 99 %
29.07.2016 17:50 24,9 C 24,8 C 24,9 C 62 % 1012,1 hPa 0,0 l/m 9,1 km/h (2 Bft) S-SW 210 0 min 0,000 mm 84 W/m 17,1 C 24,2 C 27,4 km/h (4 Bft) 98 %
29.07.2016 18:00 24,9 C 24,9 C 24,9 C 63 % 1012,0 hPa 0,0 l/m 13,7 km/h (3 Bft) W-SW 243 0 min 0,129 mm 88 W/m 17,4 C 23,4 C 25,7 km/h (4 Bft) 99 %
29.07.2016 18:10 24,8 C 24,8 C 24,9 C 62 % 1012,0 hPa 0,0 l/m 17,3 km/h (3 Bft) SW 221 0 min 0,000 mm 51 W/m 17,0 C 22,7 C 37,0 km/h (5 Bft) 100 %
29.07.2016 18:20 24,8 C 24,7 C 24,8 C 62 % 1012,0 hPa 0,0 l/m 8,8 km/h (2 Bft) W-SW 252 0 min 0,000 mm 51 W/m 17,0 C 24,2 C 22,5 km/h (4 Bft) 99 %
29.07.2016 18:30 24,7 C 24,7 C 24,8 C 62 % 1012,0 hPa 0,0 l/m 9,7 km/h (2 Bft) W-NW 288 0 min 0,000 mm 53 W/m 16,9 C 23,9 C 20,9 km/h (4 Bft) 100 %
29.07.2016 18:40 24,6 C 24,6 C 24,7 C 62 % 1012,0 hPa 0,0 l/m 12,1 km/h (2 Bft) SW 235 0 min 0,000 mm 53 W/m 16,8 C 23,3 C 24,1 km/h (4 Bft) 100 %
29.07.2016 18:50 24,5 C 24,5 C 24,7 C 62 % 1011,9 hPa 0,0 l/m 10,3 km/h (2 Bft) W-NW 287 0 min 0,000 mm 49 W/m 16,7 C 23,5 C 27,4 km/h (4 Bft) 100 %
29.07.2016 19:00 24,2 C 24,2 C 24,5 C 63 % 1012,0 hPa 0,0 l/m 13,2 km/h (3 Bft) NW 309 0 min 0,102 mm 40 W/m 16,7 C 22,6 C 32,2 km/h (5 Bft) 91 %
29.07.2016 19:10 24,1 C 24,1 C 24,2 C 62 % 1011,9 hPa 0,0 l/m 12,4 km/h (3 Bft) W-SW 244 0 min 0,000 mm 39 W/m 16,4 C 22,7 C 25,7 km/h (4 Bft) 100 %
29.07.2016 19:20 23,9 C 23,9 C 24,1 C 64 % 1012,0 hPa 0,0 l/m 6,0 km/h (2 Bft) W 265 0 min 0,000 mm 35 W/m 16,7 C 23,9 C 29,0 km/h (5 Bft) 100 %
29.07.2016 19:30 23,7 C 23,7 C 23,9 C 65 % 1012,0 hPa 0,0 l/m 7,5 km/h (2 Bft) W 267 0 min 0,000 mm 33 W/m 16,7 C 23,4 C 22,5 km/h (4 Bft) 99 %
29.07.2016 19:40 23,4 C 23,4 C 23,7 C 65 % 1011,9 hPa 0,0 l/m 9,0 km/h (2 Bft) W-SW 248 0 min 0,000 mm 30 W/m 16,4 C 22,6 C 22,5 km/h (4 Bft) 100 %
29.07.2016 19:50 23,2 C 23,2 C 23,4 C 65 % 1012,1 hPa 0,0 l/m 4,4 km/h (1 Bft) S-SW 204 0 min 0,000 mm 28 W/m 16,2 C 23,2 C 19,3 km/h (3 Bft) 99 %
29.07.2016 20:00 22,8 C 22,8 C 23,2 C 66 % 1012,2 hPa 0,0 l/m 11,0 km/h (2 Bft) S-SW 207 0 min 0,076 mm 26 W/m 16,1 C 21,5 C 30,6 km/h (5 Bft) 99 %
29.07.2016 20:10 22,6 C 22,6 C 22,8 C 66 % 1012,2 hPa 0,0 l/m 7,3 km/h (2 Bft) SW 217 0 min 0,000 mm 26 W/m 15,9 C 22,3 C 20,9 km/h (4 Bft) 99 %
29.07.2016 20:20 22,4 C 22,4 C 22,6 C 67 % 1012,2 hPa 0,0 l/m 8,4 km/h (2 Bft) W-NW 291 0 min 0,000 mm 19 W/m 16,0 C 21,7 C 22,5 km/h (4 Bft) 100 %
29.07.2016 20:30 22,2 C 22,2 C 22,4 C 67 % 1012,1 hPa 0,0 l/m 7,3 km/h (2 Bft) SW 232 0 min 0,000 mm 14 W/m 15,8 C 21,9 C 16,1 km/h (3 Bft) 100 %
29.07.2016 20:40 21,9 C 21,9 C 22,2 C 68 % 1012,2 hPa 0,0 l/m 3,2 km/h (1 Bft) SW 227 0 min 0,000 mm 12 W/m 15,7 C 21,9 C 14,5 km/h (3 Bft) 99 %
29.07.2016 20:50 21,7 C 21,7 C 21,9 C 69 % 1012,2 hPa 0,0 l/m 6,0 km/h (2 Bft) S-SW 203 0 min 0,000 mm 7 W/m 15,8 C 21,7 C 14,5 km/h (3 Bft) 100 %
29.07.2016 21:00 21,4 C 21,4 C 21,7 C 70 % 1012,3 hPa 0,0 l/m 3,6 km/h (1 Bft) SW 225 0 min 0,051 mm 0 W/m 15,7 C 21,4 C 11,3 km/h (2 Bft) 100 %
29.07.2016 21:10 21,2 C 21,2 C 21,4 C 71 % 1012,4 hPa 0,0 l/m 3,2 km/h (1 Bft) SW 225 0 min 0,000 mm 0 W/m 15,7 C 21,2 C 11,3 km/h (2 Bft) 98 %
29.07.2016 21:20 20,9 C 20,9 C 21,2 C 71 % 1012,5 hPa 0,0 l/m 1,6 km/h (1 Bft) S-SW 202 0 min 0,000 mm 0 W/m 15,4 C 20,9 C 9,7 km/h (2 Bft) 98 %
29.07.2016 21:30 20,7 C 20,7 C 20,9 C 72 % 1012,4 hPa 0,0 l/m 3,2 km/h (1 Bft) S-SW 202 0 min 0,000 mm 0 W/m 15,5 C 20,7 C 11,3 km/h (2 Bft) 98 %
29.07.2016 21:40 20,4 C 20,4 C 20,7 C 73 % 1012,4 hPa 0,0 l/m 1,6 km/h (1 Bft) S-SW 202 0 min 0,000 mm 0 W/m 15,4 C 20,4 C 9,7 km/h (2 Bft) 99 %
29.07.2016 21:50 20,0 C 20,0 C 20,4 C 75 % 1012,6 hPa 0,0 l/m 0,0 km/h (0 Bft) S-SW 202 0 min 0,000 mm 0 W/m 15,4 C 20,0 C 4,8 km/h (1 Bft) 98 %
29.07.2016 22:00 19,7 C 19,7 C 20,0 C 76 % 1012,6 hPa 0,0 l/m 1,6 km/h (1 Bft) S 180 0 min 0,000 mm 0 W/m 15,3 C 19,7 C 6,4 km/h (2 Bft) 99 %
29.07.2016 22:10 19,4 C 19,4 C 19,7 C 77 % 1012,8 hPa 0,0 l/m 1,6 km/h (1 Bft) S 180 0 min 0,000 mm 0 W/m 15,3 C 19,4 C 6,4 km/h (2 Bft) 100 %
29.07.2016 22:20 19,3 C 19,3 C 19,4 C 78 % 1012,8 hPa 0,0 l/m 1,6 km/h (1 Bft) S 180 0 min 0,000 mm 0 W/m 15,4 C 19,3 C 8,0 km/h (2 Bft) 100 %
29.07.2016 22:30 19,2 C 19,2 C 19,3 C 78 % 1012,8 hPa 0,0 l/m 1,6 km/h (1 Bft) S-SW 202 0 min 0,000 mm 0 W/m 15,3 C 19,2 C 9,7 km/h (2 Bft) 99 %
29.07.2016 22:40 19,2 C 19,2 C 19,2 C 78 % 1012,8 hPa 0,0 l/m 1,6 km/h (1 Bft) SW 225 0 min 0,000 mm 0 W/m 15,3 C 19,2 C 8,0 km/h (2 Bft) 100 %
29.07.2016 22:50 19,1 C 19,1 C 19,2 C 78 % 1012,9 hPa 0,0 l/m 0,0 km/h (0 Bft) S-SW 202 0 min 0,000 mm 0 W/m 15,2 C 19,1 C 4,8 km/h (1 Bft) 100 %
29.07.2016 23:00 18,9 C 18,9 C 19,1 C 79 % 1013,0 hPa 0,0 l/m 1,6 km/h (1 Bft) SO 135 0 min 0,025 mm 0 W/m 15,2 C 18,9 C 6,4 km/h (2 Bft) 99 %
29.07.2016 23:10 18,9 C 18,9 C 18,9 C 79 % 1013,0 hPa 0,0 l/m 0,0 km/h (0 Bft) SO 135 0 min 0,000 mm 0 W/m 15,2 C 18,9 C 4,8 km/h (1 Bft) 99 %
29.07.2016 23:20 18,8 C 18,8 C 18,9 C 79 % 1013,1 hPa 0,0 l/m 0,0 km/h (0 Bft) SO 135 0 min 0,000 mm 0 W/m 15,1 C 18,8 C 1,6 km/h (1 Bft) 100 %
29.07.2016 23:30 18,7 C 18,7 C 18,8 C 79 % 1013,1 hPa 0,0 l/m 1,6 km/h (1 Bft) S-SO 157 0 min 0,000 mm 0 W/m 15,0 C 18,7 C 6,4 km/h (2 Bft) 100 %
29.07.2016 23:40 18,4 C 18,4 C 18,7 C 81 % 1013,2 hPa 0,0 l/m 0,0 km/h (0 Bft) S-SO 157 0 min 0,000 mm 0 W/m 15,1 C 18,4 C 1,6 km/h (1 Bft) 99 %
29.07.2016 23:50 18,2 C 18,2 C 18,4 C 82 % 1013,2 hPa 0,0 l/m 0,0 km/h (0 Bft) N 0 0 min 0,000 mm 0 W/m 15,1 C 18,2 C 0,0 km/h (0 Bft) 100 %
_ Min-Zeit 05:40 05:40 05:50 16:30 18:50 - 00:50 - - - - - 23:30 02:20 23:50 05:30
Minimum _ 17,4 C 17,4 C 17,4 C 59 % 1011,9 hPa - 0,0 km/h (0 Bft) - - - - - 15,0 C 17,1 C 0,0 km/h (0 Bft) 90 %
_ Max-Zeit 16:30 16:40 16:30 04:10 02:10 00:00 18:10 - - 08:30 15:00 13:20 16:20 16:30 18:10 03:30
Maximum _ 25,9 C 25,8 C 25,9 C 89 % 1014,5 hPa 0,0 l/m 17,3 km/h
SW (3 Bft)
- - 10 min 0,356 mm 1273 W/m 18,1 C 25,5 C 37,0 km/h
W (5 Bft)
100 %
Durchschnitt _ 20,9 C 20,8 C 21,0 C 76 % 1013,5 hPa #0,0 l/m 5,5 km/h (1 Bft) SW - #8:40 h #3,124 mm 355 W/m 16,3 C 20,5 C 16,4 km/h (3 Bft) 99 %
PRIVATE WETTERSTATION BILLIGHEIM-ALLFELD - www.neckar-odenwald-wetter.de - Holger Sonntag